Time,TemperatureF,DewpointF,PressureIn,WindDirection,WindDirectionDegrees,WindSpeedMPH,WindSpeedGustMPH,Humidity,HourlyPrecipIn,Conditions,Clouds,dailyrainin,SoftwareType,DateUTC
2013-01-26 00:00:00,1.1,-5.8,30.30,NW,313,7.0,7.0,72,0.00,,,0.00,VWS V15.00,2013-01-26 06:00:00,
2013-01-26 00:04:00,1.1,-5.5,30.30,NW,313,4.0,8.0,73,0.00,,CLR,0.00,VWS V14.01,2013-01-26 06:04:00,
2013-01-26 00:09:00,1.1,-5.2,30.30,NW,313,0.0,8.0,74,0.00,,CLR,0.00,VWS V14.01,2013-01-26 06:09:00,
2013-01-26 00:14:00,0.9,-5.7,30.30,NW,313,0.0,8.0,73,0.00,,CLR,0.00,VWS V14.01,2013-01-26 06:14:00,
2013-01-26 00:15:00,0.9,-5.4,30.30,NW,313,4.0,8.0,74,0.00,,,0.00,VWS V15.00,2013-01-26 06:15:00,
2013-01-26 00:20:00,0.9,-5.4,30.30,NW,313,4.0,7.0,74,0.00,,CLR,0.00,VWS V14.01,2013-01-26 06:20:00,
2013-01-26 00:25:00,0.9,-5.4,30.30,NW,313,4.0,7.0,74,0.00,,CLR,0.00,VWS V14.01,2013-01-26 06:25:00,
2013-01-26 00:30:00,0.9,-5.4,30.30,NW,313,3.0,9.0,74,0.00,,CLR,0.00,VWS V14.01,2013-01-26 06:30:00,
2013-01-26 00:35:00,0.9,-5.4,30.31,NW,313,0.0,5.0,74,0.00,,CLR,0.00,VWS V14.01,2013-01-26 06:35:00,
2013-01-26 00:40:00,1.1,-5.2,30.31,NW,313,0.0,6.0,74,0.00,,SCT120,0.00,VWS V14.01,2013-01-26 06:40:00,
2013-01-26 00:45:00,0.9,-5.7,30.31,NW,313,0.0,6.0,73,0.00,,SCT120,0.00,VWS V14.01,2013-01-26 06:45:00,
2013-01-26 00:50:00,0.7,-5.9,30.31,NW,313,0.0,4.0,73,0.00,,BKN110,0.00,VWS V14.01,2013-01-26 06:50:00,
2013-01-26 00:55:00,0.5,-6.1,30.31,NW,313,0.0,4.0,73,0.00,,BKN110,0.00,VWS V14.01,2013-01-26 06:55:00,
2013-01-26 01:00:00,0.3,-6.0,30.31,NW,313,0.0,4.0,74,0.00,,BKN110,0.00,VWS V14.01,2013-01-26 07:00:00,
2013-01-26 01:05:00,0.3,-6.0,30.31,NW,313,0.0,0.0,74,0.00,,BKN110,0.00,VWS V14.01,2013-01-26 07:05:00,
2013-01-26 01:10:00,0.3,-6.0,30.31,NW,313,0.0,5.0,74,0.00,,BKN110,0.00,VWS V14.01,2013-01-26 07:10:00,
2013-01-26 01:15:00,0.1,-6.2,30.31,NW,313,0.0,5.0,74,0.00,,BKN110,0.00,VWS V14.01,2013-01-26 07:15:00,
2013-01-26 01:20:00,0.1,-6.0,30.31,NW,313,0.0,0.0,75,0.00,,BKN110,0.00,VWS V14.01,2013-01-26 07:20:00,
2013-01-26 01:25:00,0.1,-6.0,30.31,NW,313,0.0,0.0,75,0.00,,BKN110,0.00,VWS V14.01,2013-01-26 07:25:00,
2013-01-26 01:30:00,-0.2,-6.2,30.31,NW,313,0.0,0.0,75,0.00,,BKN110,0.00,VWS V14.01,2013-01-26 07:30:00,
2013-01-26 01:35:00,-0.4,-6.4,30.32,NW,313,0.0,0.0,75,0.00,,BKN110,0.00,VWS V14.01,2013-01-26 07:35:00,
2013-01-26 01:40:00,-0.6,-6.6,30.32,NW,313,0.0,0.0,75,0.00,,BKN110,0.00,VWS V14.01,2013-01-26 07:40:00,
2013-01-26 01:45:00,-0.6,-6.6,30.32,NW,313,0.0,0.0,75,0.00,,BKN110,0.00,VWS V14.01,2013-01-26 07:45:00,
2013-01-26 01:50:00,-0.8,-6.8,30.32,NW,313,0.0,0.0,75,0.00,,BKN110,0.00,VWS V14.01,2013-01-26 07:50:00,
2013-01-26 01:55:00,-0.8,-6.8,30.32,NW,313,0.0,0.0,75,0.00,,BKN110,0.00,VWS V14.01,2013-01-26 07:55:00,
2013-01-26 02:00:00,-0.8,-6.5,30.32,NW,313,0.0,0.0,76,0.00,,BKN110,0.00,VWS V14.01,2013-01-26 08:00:00,
2013-01-26 02:06:00,-1.0,-6.7,30.32,NW,313,0.0,0.0,76,0.00,,BKN110,0.00,VWS V14.01,2013-01-26 08:06:00,
2013-01-26 02:11:00,-1.2,-6.9,30.32,NW,313,0.0,0.0,76,0.00,,BKN110,0.00,VWS V14.01,2013-01-26 08:11:00,
2013-01-26 02:15:00,-1.4,-7.1,30.32,NW,313,0.0,0.0,76,0.00,,,0.00,VWS V15.00,2013-01-26 08:15:00,
2013-01-26 02:16:00,-1.2,-6.9,30.32,NW,313,0.0,0.0,76,0.00,,BKN110,0.00,VWS V14.01,2013-01-26 08:16:00,
2013-01-26 02:21:00,-1.4,-7.1,30.32,NW,313,0.0,0.0,76,0.00,,BKN110,0.00,VWS V14.01,2013-01-26 08:21:00,
2013-01-26 02:26:00,-1.6,-7.3,30.32,NW,313,0.0,0.0,76,0.00,,BKN110,0.00,VWS V14.01,2013-01-26 08:26:00,
2013-01-26 02:30:00,-1.6,-7.0,30.31,NW,313,0.0,0.0,77,0.00,,,0.00,VWS V15.00,2013-01-26 08:30:00,
2013-01-26 02:31:00,-1.6,-7.0,30.31,NW,313,0.0,0.0,77,0.00,,BKN110,0.00,VWS V14.01,2013-01-26 08:31:00,
2013-01-26 02:36:00,-1.6,-7.0,30.31,NW,313,0.0,0.0,77,0.00,,BKN110,0.00,VWS V14.01,2013-01-26 08:36:00,
2013-01-26 02:41:00,-1.8,-7.2,30.31,NW,313,0.0,0.0,77,0.00,,SCT120,0.00,VWS V14.01,2013-01-26 08:41:00,
2013-01-26 02:45:00,-1.8,-7.2,30.31,NW,313,0.0,0.0,77,0.00,,,0.00,VWS V15.00,2013-01-26 08:45:00,
2013-01-26 02:46:00,-1.8,-7.2,30.31,NW,313,0.0,0.0,77,0.00,,SCT120,0.00,VWS V14.01,2013-01-26 08:46:00,
2013-01-26 02:51:00,-1.8,-7.2,30.31,NW,313,0.0,0.0,77,0.00,,BKN120,0.00,VWS V14.01,2013-01-26 08:51:00,
2013-01-26 02:56:00,-2.0,-7.4,30.31,NW,313,0.0,0.0,77,0.00,,BKN120,0.00,VWS V14.01,2013-01-26 08:56:00,
2013-01-26 03:00:00,-2.2,-7.6,30.30,NW,313,0.0,0.0,77,0.00,,,0.00,VWS V15.00,2013-01-26 09:00:00,
2013-01-26 03:01:00,-2.2,-7.6,30.30,NW,313,0.0,0.0,77,0.00,,BKN120,0.00,VWS V14.01,2013-01-26 09:01:00,
2013-01-26 03:06:00,-2.2,-7.6,30.30,NW,313,0.0,0.0,77,0.00,,BKN120,0.00,VWS V14.01,2013-01-26 09:06:00,
2013-01-26 03:11:00,-2.0,-7.2,30.30,NW,313,0.0,0.0,78,0.00,,BKN120,0.00,VWS V14.01,2013-01-26 09:11:00,
2013-01-26 03:15:00,-2.0,-7.4,30.31,NW,313,0.0,0.0,77,0.00,,,0.00,VWS V15.00,2013-01-26 09:15:00,
2013-01-26 03:16:00,-2.0,-7.4,30.31,NW,313,0.0,0.0,77,0.00,,BKN120,0.00,VWS V14.01,2013-01-26 09:16:00,
2013-01-26 03:21:00,-2.4,-7.8,30.31,NW,313,0.0,0.0,77,0.00,,BKN120,0.00,VWS V14.01,2013-01-26 09:21:00,
2013-01-26 03:26:00,-3.1,-8.8,30.31,NW,313,0.0,0.0,76,0.00,,BKN120,0.00,VWS V14.01,2013-01-26 09:26:00,
2013-01-26 03:30:00,-3.5,-9.1,30.31,NW,313,0.0,0.0,76,0.00,,,0.00,VWS V15.00,2013-01-26 09:30:00,
2013-01-26 03:31:00,-3.5,-9.1,30.31,NW,313,0.0,0.0,76,0.00,,BKN120,0.00,VWS V14.01,2013-01-26 09:31:00,
2013-01-26 03:36:00,-3.5,-9.1,30.31,NW,313,0.0,0.0,76,0.00,,BKN120,0.00,VWS V14.01,2013-01-26 09:36:00,
2013-01-26 03:41:00,-3.7,-9.1,30.31,NW,313,0.0,0.0,77,0.00,,BKN120,0.00,VWS V14.01,2013-01-26 09:41:00,
2013-01-26 03:45:00,-3.5,-8.9,30.31,NW,313,0.0,0.0,77,0.00,,,0.00,VWS V15.00,2013-01-26 09:45:00,
2013-01-26 03:46:00,-3.5,-8.9,30.31,NW,313,0.0,0.0,77,0.00,,BKN120,0.00,VWS V14.01,2013-01-26 09:46:00,
2013-01-26 03:51:00,-3.3,-8.4,30.31,NW,313,0.0,0.0,78,0.00,,BKN120,0.00,VWS V14.01,2013-01-26 09:51:00,
2013-01-26 03:56:00,-3.3,-8.7,30.31,NW,313,0.0,0.0,77,0.00,,BKN120,0.00,VWS V14.01,2013-01-26 09:56:00,
2013-01-26 04:00:00,-3.3,-8.7,30.31,NW,313,0.0,0.0,77,0.00,,,0.00,VWS V15.00,2013-01-26 10:00:00,
2013-01-26 04:01:00,-3.3,-8.7,30.31,NW,313,0.0,0.0,77,0.00,,BKN110,0.00,VWS V14.01,2013-01-26 10:01:00,
2013-01-26 04:06:00,-3.3,-8.4,30.31,NW,313,0.0,0.0,78,0.00,,BKN110,0.00,VWS V14.01,2013-01-26 10:06:00,
2013-01-26 04:11:00,-3.3,-8.7,30.31,NW,313,0.0,0.0,77,0.00,,BKN110,0.00,VWS V14.01,2013-01-26 10:11:00,
2013-01-26 04:15:00,-3.9,-9.5,30.30,NW,313,0.0,0.0,76,0.00,,,0.00,VWS V15.00,2013-01-26 10:15:00,
2013-01-26 04:16:00,-3.9,-9.5,30.30,NW,313,0.0,0.0,76,0.00,,BKN110,0.00,VWS V14.01,2013-01-26 10:16:00,
2013-01-26 04:21:00,-4.1,-9.5,30.30,NW,313,0.0,0.0,77,0.00,,BKN110,0.00,VWS V14.01,2013-01-26 10:21:00,
2013-01-26 04:26:00,-4.1,-9.5,30.30,NW,313,0.0,0.0,77,0.00,,BKN110,0.00,VWS V14.01,2013-01-26 10:26:00,
2013-01-26 04:30:00,-4.1,-9.5,30.30,NW,313,0.0,0.0,77,0.00,,,0.00,VWS V15.00,2013-01-26 10:30:00,
2013-01-26 04:32:00,-4.1,-9.5,30.30,NW,313,0.0,0.0,77,0.00,,BKN110,0.00,VWS V14.01,2013-01-26 10:32:00,
2013-01-26 04:37:00,-4.1,-9.5,30.30,NW,313,0.0,0.0,77,0.00,,BKN110,0.00,VWS V14.01,2013-01-26 10:37:00,
2013-01-26 04:42:00,-3.9,-9.0,30.30,NW,313,0.0,0.0,78,0.00,,BKN120,0.00,VWS V14.01,2013-01-26 10:42:00,
2013-01-26 04:45:00,-3.7,-8.8,30.30,NW,313,0.0,0.0,78,0.00,,,0.00,VWS V15.00,2013-01-26 10:45:00,
2013-01-26 04:47:00,-3.7,-8.8,30.30,NW,313,0.0,0.0,78,0.00,,BKN120,0.00,VWS V14.01,2013-01-26 10:47:00,
2013-01-26 04:52:00,-4.6,-10.2,30.30,NW,313,0.0,0.0,76,0.00,,OVC120,0.00,VWS V14.01,2013-01-26 10:52:00,
2013-01-26 04:57:00,-5.2,-11.1,30.30,NW,313,0.0,0.0,75,0.00,,OVC120,0.00,VWS V14.01,2013-01-26 10:57:00,
2013-01-26 05:00:00,-5.2,-10.8,30.30,NW,313,0.0,0.0,76,0.00,,,0.00,VWS V15.00,2013-01-26 11:00:00,
2013-01-26 05:02:00,-5.2,-11.1,30.30,NW,313,0.0,0.0,75,0.00,,OVC120,0.00,VWS V14.01,2013-01-26 11:02:00,
2013-01-26 05:07:00,-5.4,-11.0,30.30,NW,313,0.0,0.0,76,0.00,,OVC120,0.00,VWS V14.01,2013-01-26 11:07:00,
2013-01-26 05:12:00,-5.4,-11.0,30.30,NW,313,0.0,0.0,76,0.00,,OVC120,0.00,VWS V14.01,2013-01-26 11:12:00,
2013-01-26 05:15:00,-5.4,-11.0,30.31,NW,313,0.0,0.0,76,0.00,,,0.00,VWS V15.00,2013-01-26 11:15:00,
2013-01-26 05:17:00,-5.4,-11.0,30.31,NW,313,0.0,0.0,76,0.00,,OVC120,0.00,VWS V14.01,2013-01-26 11:17:00,
2013-01-26 05:22:00,-5.4,-11.0,30.31,NW,313,0.0,0.0,76,0.00,,OVC120,0.00,VWS V14.01,2013-01-26 11:22:00,
2013-01-26 05:27:00,-5.4,-11.0,30.31,NW,313,0.0,0.0,76,0.00,,OVC120,0.00,VWS V14.01,2013-01-26 11:27:00,
2013-01-26 05:30:00,-5.4,-11.0,30.31,NW,313,0.0,0.0,76,0.00,,,0.00,VWS V15.00,2013-01-26 11:30:00,
2013-01-26 05:32:00,-5.4,-11.0,30.31,NW,313,0.0,0.0,76,0.00,,OVC120,0.00,VWS V14.01,2013-01-26 11:32:00,
2013-01-26 05:37:00,-5.4,-11.0,30.31,NW,313,0.0,0.0,76,0.00,,OVC120,0.00,VWS V14.01,2013-01-26 11:37:00,
2013-01-26 05:42:00,-5.4,-11.0,30.31,NW,313,0.0,0.0,76,0.00,,BKN120,0.00,VWS V14.01,2013-01-26 11:42:00,
2013-01-26 05:45:00,-5.6,-11.2,30.31,NW,313,0.0,0.0,76,0.00,,,0.00,VWS V15.00,2013-01-26 11:45:00,
2013-01-26 05:47:00,-5.6,-11.2,30.31,NW,313,0.0,0.0,76,0.00,,BKN120,0.00,VWS V14.01,2013-01-26 11:47:00,
2013-01-26 05:52:00,-5.6,-11.2,30.31,NW,313,0.0,0.0,76,0.00,,BKN120,0.00,VWS V14.01,2013-01-26 11:52:00,
2013-01-26 05:57:00,-6.1,-11.9,30.31,NW,313,0.0,0.0,75,0.00,,BKN120,0.00,VWS V14.01,2013-01-26 11:57:00,
2013-01-26 06:00:00,-6.3,-12.1,30.33,NW,313,0.0,0.0,75,0.00,,,0.00,VWS V15.00,2013-01-26 12:00:00,
2013-01-26 06:02:00,-6.3,-12.1,30.33,NW,313,0.0,0.0,75,0.00,,SCT110,0.00,VWS V14.01,2013-01-26 12:02:00,
2013-01-26 06:07:00,-6.5,-12.3,30.33,NW,313,0.0,0.0,75,0.00,,SCT110,0.00,VWS V14.01,2013-01-26 12:07:00,
2013-01-26 06:12:00,-6.5,-12.3,30.33,NW,313,0.0,0.0,75,0.00,,SCT110,0.00,VWS V14.01,2013-01-26 12:12:00,
2013-01-26 06:15:00,-6.3,-12.1,30.34,NW,313,0.0,0.0,75,0.00,,,0.00,VWS V15.00,2013-01-26 12:15:00,
2013-01-26 06:17:00,-6.3,-12.1,30.34,NW,313,0.0,0.0,75,0.00,,SCT110,0.00,VWS V14.01,2013-01-26 12:17:00,
2013-01-26 06:22:00,-6.3,-12.1,30.34,NW,313,0.0,0.0,75,0.00,,SCT110,0.00,VWS V14.01,2013-01-26 12:22:00,
2013-01-26 06:27:00,-6.3,-12.1,30.34,NW,313,0.0,0.0,75,0.00,,SCT110,0.00,VWS V14.01,2013-01-26 12:27:00,
2013-01-26 06:30:00,-6.3,-12.1,30.33,NW,313,0.0,0.0,75,0.00,,,0.00,VWS V15.00,2013-01-26 12:30:00,
2013-01-26 06:32:00,-6.3,-11.9,30.33,NW,313,0.0,0.0,76,0.00,,SCT110,0.00,VWS V14.01,2013-01-26 12:32:00,
2013-01-26 06:37:00,-5.9,-11.5,30.33,NW,313,0.0,0.0,76,0.00,,SCT110,0.00,VWS V14.01,2013-01-26 12:37:00,
2013-01-26 06:42:00,-5.9,-11.5,30.33,NW,313,0.0,0.0,76,0.00,,SCT110,0.00,VWS V14.01,2013-01-26 12:42:00,
2013-01-26 06:45:00,-5.9,-11.5,30.33,NW,313,0.0,0.0,76,0.00,,,0.00,VWS V15.00,2013-01-26 12:45:00,
2013-01-26 06:47:00,-6.1,-11.9,30.33,NW,313,0.0,0.0,75,0.00,,SCT110,0.00,VWS V14.01,2013-01-26 12:47:00,
2013-01-26 06:53:00,-7.0,-13.1,30.33,NW,313,0.0,0.0,74,0.00,,SCT120,0.00,VWS V14.01,2013-01-26 12:53:00,
2013-01-26 06:58:00,-7.0,-12.8,30.33,NW,313,0.0,0.0,75,0.00,,SCT120,0.00,VWS V14.01,2013-01-26 12:58:00,
2013-01-26 07:00:00,-7.0,-12.8,30.34,NW,313,0.0,0.0,75,0.00,,,0.00,VWS V15.00,2013-01-26 13:00:00,
2013-01-26 07:03:00,-6.8,-12.6,30.34,NW,313,0.0,0.0,75,0.00,,SCT120,0.00,VWS V14.01,2013-01-26 13:03:00,
2013-01-26 07:08:00,-6.5,-12.1,30.34,NW,313,0.0,0.0,76,0.00,,SCT120,0.00,VWS V14.01,2013-01-26 13:08:00,
2013-01-26 07:13:00,-6.5,-12.1,30.34,NW,313,0.0,0.0,76,0.00,,SCT120,0.00,VWS V14.01,2013-01-26 13:13:00,
2013-01-26 07:15:00,-6.3,-11.9,30.34,NW,313,0.0,0.0,76,0.00,,,0.00,VWS V15.00,2013-01-26 13:15:00,
2013-01-26 07:18:00,-6.3,-11.9,30.34,NW,313,0.0,0.0,76,0.00,,SCT120,0.00,VWS V14.01,2013-01-26 13:18:00,
2013-01-26 07:23:00,-6.3,-12.1,30.34,NW,313,0.0,0.0,75,0.00,,SCT120,0.00,VWS V14.01,2013-01-26 13:23:00,
2013-01-26 07:28:00,-6.5,-12.3,30.34,NW,313,0.0,0.0,75,0.00,,SCT120,0.00,VWS V14.01,2013-01-26 13:28:00,
2013-01-26 07:30:00,-6.8,-12.6,30.35,NW,313,0.0,0.0,75,0.00,,,0.00,VWS V15.00,2013-01-26 13:30:00,
2013-01-26 07:33:00,-6.8,-12.6,30.35,NW,313,0.0,0.0,75,0.00,,SCT120,0.00,VWS V14.01,2013-01-26 13:33:00,
2013-01-26 07:38:00,-7.0,-13.1,30.35,NW,313,0.0,0.0,74,0.00,,SCT120,0.00,VWS V14.01,2013-01-26 13:38:00,
2013-01-26 07:43:00,-7.5,-13.6,30.35,NW,313,0.0,0.0,74,0.00,,BKN120,0.00,VWS V14.01,2013-01-26 13:43:00,
2013-01-26 07:45:00,-7.7,-13.8,30.35,NW,313,0.0,0.0,74,0.00,,,0.00,VWS V15.00,2013-01-26 13:45:00,
2013-01-26 07:48:00,-7.5,-13.6,30.35,NW,313,0.0,0.0,74,0.00,,BKN120,0.00,VWS V14.01,2013-01-26 13:48:00,
2013-01-26 07:53:00,-7.5,-13.6,30.35,NW,313,0.0,0.0,74,0.00,,BKN120,0.00,VWS V14.01,2013-01-26 13:53:00,
2013-01-26 07:58:00,-6.8,-12.6,30.35,NW,313,0.0,0.0,75,0.00,,BKN120,0.00,VWS V14.01,2013-01-26 13:58:00,
2013-01-26 08:00:00,-6.3,-11.9,30.36,NW,313,0.0,0.0,76,0.00,,,0.00,VWS V15.00,2013-01-26 14:00:00,
2013-01-26 08:03:00,-6.1,-11.7,30.36,NW,313,0.0,0.0,76,0.00,,BKN110,0.00,VWS V14.01,2013-01-26 14:03:00,
2013-01-26 08:08:00,-5.9,-11.5,30.36,NW,313,0.0,0.0,76,0.00,,BKN110,0.00,VWS V14.01,2013-01-26 14:08:00,
2013-01-26 08:14:00,-5.9,-11.8,30.36,NW,313,0.0,0.0,75,0.00,,BKN110,0.00,VWS V14.01,2013-01-26 14:14:00,
2013-01-26 08:15:00,-5.6,-11.5,30.35,NW,313,0.0,0.0,75,0.00,,,0.00,VWS V15.00,2013-01-26 14:15:00,
2013-01-26 08:19:00,-5.6,-11.5,30.35,NW,313,0.0,0.0,75,0.00,,BKN110,0.00,VWS V14.01,2013-01-26 14:19:00,
2013-01-26 08:24:00,-5.6,-11.5,30.35,NW,313,0.0,0.0,75,0.00,,BKN110,0.00,VWS V14.01,2013-01-26 14:24:00,
2013-01-26 08:29:00,-5.6,-11.5,30.35,NW,313,0.0,0.0,75,0.00,,BKN110,0.00,VWS V14.01,2013-01-26 14:29:00,
2013-01-26 08:30:00,-5.4,-11.3,30.35,NW,313,0.0,0.0,75,0.00,,,0.00,VWS V15.00,2013-01-26 14:30:00,
2013-01-26 08:34:00,-5.4,-11.3,30.35,NW,313,0.0,0.0,75,0.00,,BKN110,0.00,VWS V14.01,2013-01-26 14:34:00,
2013-01-26 08:39:00,-5.2,-11.1,30.35,NW,313,0.0,0.0,75,0.00,,BKN110,0.00,VWS V14.01,2013-01-26 14:39:00,
2013-01-26 08:44:00,-5.0,-10.9,30.35,NW,313,0.0,0.0,75,0.00,,SCT100,0.00,VWS V14.01,2013-01-26 14:44:00,
2013-01-26 08:45:00,-4.8,-10.7,30.36,NW,313,0.0,0.0,75,0.00,,,0.00,VWS V15.00,2013-01-26 14:45:00,
2013-01-26 08:49:00,-4.6,-10.5,30.36,NW,313,0.0,0.0,75,0.00,,SCT100,0.00,VWS V14.01,2013-01-26 14:49:00,
2013-01-26 08:54:00,-4.1,-10.0,30.36,NW,313,0.0,0.0,75,0.00,,CLR,0.00,VWS V14.01,2013-01-26 14:54:00,
2013-01-26 08:59:00,-3.9,-9.8,30.36,NW,313,0.0,0.0,75,0.00,,CLR,0.00,VWS V14.01,2013-01-26 14:59:00,
2013-01-26 09:00:00,-3.7,-9.6,30.36,NW,313,0.0,0.0,75,0.00,,,0.00,VWS V15.00,2013-01-26 15:00:00,
2013-01-26 09:04:00,-3.3,-9.2,30.36,NW,313,0.0,0.0,75,0.00,,CLR,0.00,VWS V14.01,2013-01-26 15:04:00,
2013-01-26 09:09:00,-2.8,-8.5,30.36,NW,313,0.0,0.0,76,0.00,,CLR,0.00,VWS V14.01,2013-01-26 15:09:00,
2013-01-26 09:14:00,-2.0,-7.7,30.36,NW,313,0.0,0.0,76,0.00,,CLR,0.00,VWS V14.01,2013-01-26 15:14:00,
2013-01-26 09:15:00,-1.6,-7.0,30.36,NW,313,0.0,0.0,77,0.00,,,0.00,VWS V15.00,2013-01-26 15:15:00,
2013-01-26 09:19:00,-1.2,-6.7,30.36,NW,313,0.0,0.0,77,0.00,,CLR,0.00,VWS V14.01,2013-01-26 15:19:00,
2013-01-26 09:24:00,-0.6,-6.1,30.36,NW,313,0.0,0.0,77,0.00,,CLR,0.00,VWS V14.01,2013-01-26 15:24:00,
2013-01-26 09:29:00,0.1,-5.4,30.36,NW,313,0.0,0.0,77,0.00,,CLR,0.00,VWS V14.01,2013-01-26 15:29:00,
2013-01-26 09:30:00,0.3,-5.2,30.36,NW,313,0.0,0.0,77,0.00,,,0.00,VWS V15.00,2013-01-26 15:30:00,
2013-01-26 09:34:00,0.7,-4.8,30.36,NW,313,0.0,0.0,77,0.00,,CLR,0.00,VWS V14.01,2013-01-26 15:34:00,
2013-01-26 09:39:00,1.7,-3.8,30.36,NW,313,0.0,0.0,77,0.00,,CLR,0.00,VWS V14.01,2013-01-26 15:39:00,
2013-01-26 09:44:00,2.2,-3.6,30.36,NW,313,0.0,0.0,76,0.00,,CLR,0.00,VWS V14.01,2013-01-26 15:44:00,
2013-01-26 09:45:00,2.6,-3.5,30.36,NW,313,0.0,0.0,75,0.00,,,0.00,VWS V15.00,2013-01-26 15:45:00,
2013-01-26 09:49:00,2.8,-3.3,30.36,NW,313,0.0,0.0,75,0.00,,CLR,0.00,VWS V14.01,2013-01-26 15:49:00,
2013-01-26 09:54:00,3.0,-3.7,30.36,NW,313,0.0,0.0,73,0.00,,CLR,0.00,VWS V14.01,2013-01-26 15:54:00,
2013-01-26 09:59:00,3.4,-3.3,30.36,NW,313,0.0,0.0,73,0.00,,CLR,0.00,VWS V14.01,2013-01-26 15:59:00,
2013-01-26 10:00:00,3.5,-3.2,30.36,NW,313,0.0,0.0,73,0.00,,,0.00,VWS V15.00,2013-01-26 16:00:00,
2013-01-26 10:04:00,3.9,-3.1,30.36,NW,313,0.0,0.0,72,0.00,,CLR,0.00,VWS V14.01,2013-01-26 16:04:00,
2013-01-26 10:09:00,4.3,-2.7,30.36,NW,313,3.0,6.0,72,0.00,,CLR,0.00,VWS V14.01,2013-01-26 16:09:00,
2013-01-26 10:15:00,4.7,-2.6,30.36,NW,313,0.0,6.0,71,0.00,,CLR,0.00,VWS V14.01,2013-01-26 16:15:00,
2013-01-26 10:20:00,5.2,-2.1,30.35,NW,313,0.0,0.0,71,0.00,,CLR,0.00,VWS V14.01,2013-01-26 16:20:00,
2013-01-26 10:25:00,5.8,-1.6,30.35,NW,313,1.0,1.0,71,0.00,,CLR,0.00,VWS V14.01,2013-01-26 16:25:00,
2013-01-26 10:30:00,6.1,-1.6,30.35,NW,312,6.0,6.0,70,0.00,,CLR,0.00,VWS V14.01,2013-01-26 16:30:00,
2013-01-26 10:35:00,6.5,-1.2,30.35,South,182,7.0,9.0,70,0.00,,BKN090,0.00,VWS V14.01,2013-01-26 16:35:00,
2013-01-26 10:40:00,7.0,-1.0,30.35,SSE,150,10.0,10.0,69,0.00,,SCT090,0.00,VWS V14.01,2013-01-26 16:40:00,
2013-01-26 10:45:00,7.6,-0.4,30.35,SE,145,5.0,13.0,69,0.00,,SCT090,0.00,VWS V14.01,2013-01-26 16:45:00,
2013-01-26 10:50:00,7.9,-0.1,30.33,SSE,149,10.0,11.0,69,0.00,,SCT090,0.00,VWS V14.01,2013-01-26 16:50:00,
2013-01-26 10:55:00,8.4,0.0,30.33,SSE,159,13.0,13.0,68,0.00,,SCT090,0.00,VWS V14.01,2013-01-26 16:55:00,
2013-01-26 11:00:00,8.8,0.1,30.33,SSE,163,7.0,13.0,67,0.00,,SCT090,0.00,VWS V14.01,2013-01-26 17:00:00,
2013-01-26 11:05:00,9.3,0.6,30.33,SSE,160,7.0,12.0,67,0.00,,SCT090,0.00,VWS V14.01,2013-01-26 17:05:00,
2013-01-26 11:10:00,9.5,0.1,30.33,SSE,159,7.0,12.0,65,0.00,,BKN090,0.00,VWS V14.01,2013-01-26 17:10:00,
2013-01-26 11:15:00,9.9,0.5,30.33,SSE,154,7.0,12.0,65,0.00,,BKN090,0.00,VWS V14.01,2013-01-26 17:15:00,
2013-01-26 11:20:00,10.4,1.0,30.33,SSE,155,5.0,6.0,65,0.00,,BKN090,0.00,VWS V14.01,2013-01-26 17:20:00,
2013-01-26 11:25:00,10.9,0.8,30.33,South,187,6.0,9.0,63,0.00,,BKN090,0.00,VWS V14.01,2013-01-26 17:25:00,
2013-01-26 11:30:00,11.2,1.4,30.33,South,184,3.0,9.0,64,0.00,,BKN090,0.00,VWS V14.01,2013-01-26 17:30:00,
2013-01-26 11:35:00,11.2,0.7,30.33,South,176,6.0,7.0,62,0.00,,BKN090,0.00,VWS V14.01,2013-01-26 17:35:00,
2013-01-26 11:40:00,11.6,0.8,30.33,South,173,9.0,9.0,61,0.00,,OVC090,0.00,VWS V14.01,2013-01-26 17:40:00,
2013-01-26 11:45:00,11.7,0.9,30.33,SSE,165,4.0,9.0,61,0.00,,OVC090,0.00,VWS V14.01,2013-01-26 17:45:00,
2013-01-26 11:50:00,12.3,1.1,30.34,South,173,0.0,7.0,60,0.00,,OVC090,0.00,VWS V14.01,2013-01-26 17:50:00,
2013-01-26 11:56:00,12.4,0.8,30.34,South,174,0.0,7.0,59,0.00,,OVC090,0.00,VWS V14.01,2013-01-26 17:56:00,
2013-01-26 12:00:00,12.4,1.5,30.33,South,182,3.0,8.0,61,0.00,,,0.00,VWS V15.00,2013-01-26 18:00:00,
2013-01-26 12:01:00,12.4,1.2,30.34,South,182,6.0,8.0,60,0.00,,OVC090,0.00,VWS V14.01,2013-01-26 18:01:00,
2013-01-26 12:06:00,12.4,1.2,30.33,South,182,6.0,9.0,60,0.00,,OVC090,0.00,VWS V14.01,2013-01-26 18:06:00,
2013-01-26 12:11:00,12.4,1.2,30.33,South,182,5.0,9.0,60,0.00,,OVC090,0.00,VWS V14.01,2013-01-26 18:11:00,
2013-01-26 12:15:00,12.6,1.0,30.32,South,182,4.0,9.0,59,0.00,,,0.00,VWS V15.00,2013-01-26 18:15:00,
2013-01-26 12:16:00,12.6,1.0,30.33,South,182,4.0,9.0,59,0.00,,OVC090,0.00,VWS V14.01,2013-01-26 18:16:00,
2013-01-26 12:21:00,12.8,1.9,30.32,South,182,2.0,5.0,61,0.00,,OVC090,0.00,VWS V14.01,2013-01-26 18:21:00,
2013-01-26 12:26:00,13.1,1.5,30.32,SSE,164,5.0,11.0,59,0.00,,OVC090,0.00,VWS V14.01,2013-01-26 18:26:00,
2013-01-26 12:30:00,13.1,1.8,30.31,SSE,155,8.0,11.0,60,0.00,,,0.00,VWS V15.00,2013-01-26 18:30:00,
2013-01-26 12:31:00,12.9,1.3,30.31,SSE,156,6.0,11.0,59,0.00,,OVC090,0.00,VWS V14.01,2013-01-26 18:31:00,
2013-01-26 12:36:00,13.3,1.3,30.31,SSE,153,5.0,8.0,58,0.00,,OVC090,0.00,VWS V14.01,2013-01-26 18:36:00,
2013-01-26 12:41:00,13.3,0.9,30.31,SSE,153,6.0,8.0,57,0.00,,OVC090,0.00,VWS V14.01,2013-01-26 18:41:00,
2013-01-26 12:45:00,13.5,1.9,30.31,SSE,153,6.0,12.0,59,0.00,,,0.00,VWS V15.00,2013-01-26 18:45:00,
2013-01-26 12:46:00,13.3,1.7,30.31,SSE,152,4.0,12.0,59,0.00,,OVC090,0.00,VWS V14.01,2013-01-26 18:46:00,
2013-01-26 12:51:00,13.3,0.9,30.31,SSE,153,6.0,7.0,57,0.00,,OVC090,0.00,VWS V14.01,2013-01-26 18:51:00,
2013-01-26 12:56:00,13.8,2.1,30.31,SSE,153,1.0,7.0,59,0.00,,OVC090,0.00,VWS V14.01,2013-01-26 18:56:00,
2013-01-26 13:00:00,14.3,1.9,30.30,SSE,153,9.0,10.0,57,0.00,,,0.00,VWS V15.00,2013-01-26 19:00:00,
2013-01-26 13:01:00,14.3,1.9,30.30,SSE,153,5.0,7.0,57,0.00,,OVC090,0.00,VWS V14.01,2013-01-26 19:01:00,
2013-01-26 13:06:00,14.3,1.9,30.30,SSE,152,5.0,11.0,57,0.00,,OVC090,0.00,VWS V14.01,2013-01-26 19:06:00,
2013-01-26 13:11:00,14.8,2.0,30.30,SSE,152,1.0,11.0,56,0.00,,OVC090,0.00,VWS V14.01,2013-01-26 19:11:00,
2013-01-26 13:15:00,15.1,1.9,30.29,SSE,152,4.0,11.0,55,0.00,,,0.00,VWS V15.00,2013-01-26 19:15:00,
2013-01-26 13:16:00,15.1,1.9,30.29,SSE,152,3.0,11.0,55,0.00,,OVC090,0.00,VWS V14.01,2013-01-26 19:16:00,
2013-01-26 13:21:00,15.2,2.0,30.29,SSE,152,5.0,6.0,55,0.00,,OVC090,0.00,VWS V14.01,2013-01-26 19:21:00,
2013-01-26 13:26:00,15.2,2.0,30.29,SSE,152,1.0,9.0,55,0.00,,OVC090,0.00,VWS V14.01,2013-01-26 19:26:00,
2013-01-26 13:30:00,15.4,2.5,30.29,SSE,152,6.0,9.0,56,0.00,,,0.00,VWS V15.00,2013-01-26 19:30:00,
2013-01-26 13:31:00,15.4,2.1,30.29,SSE,152,9.0,9.0,55,0.00,,OVC090,0.00,VWS V14.01,2013-01-26 19:31:00,
2013-01-26 13:36:00,15.4,2.1,30.29,SSE,152,4.0,9.0,55,0.00,,OVC090,0.00,VWS V14.01,2013-01-26 19:36:00,
2013-01-26 13:42:00,15.6,2.3,30.29,SSE,153,8.0,10.0,55,0.00,,OVC090,0.00,VWS V14.01,2013-01-26 19:42:00,
2013-01-26 13:45:00,15.9,2.2,30.27,SSE,152,8.0,10.0,54,0.00,,,0.00,VWS V15.00,2013-01-26 19:45:00,
2013-01-26 13:47:00,15.9,2.2,30.27,SSE,152,8.0,10.0,54,0.00,,OVC090,0.00,VWS V14.01,2013-01-26 19:47:00,
2013-01-26 13:52:00,16.1,2.8,30.27,SSE,153,8.0,11.0,55,0.00,,OVC090,0.00,VWS V14.01,2013-01-26 19:52:00,
2013-01-26 13:57:00,16.2,2.1,30.27,SSE,158,14.0,16.0,53,0.00,,OVC090,0.00,VWS V14.01,2013-01-26 19:57:00,
2013-01-26 14:00:00,15.9,1.8,30.25,SE,139,15.0,19.0,53,0.00,,,0.00,VWS V15.00,2013-01-26 20:00:00,
2013-01-26 14:02:00,15.9,1.8,30.25,SE,144,15.0,19.0,53,0.00,,OVC120,0.00,VWS V14.01,2013-01-26 20:02:00,
2013-01-26 14:07:00,15.9,1.8,30.25,SSE,164,11.0,17.0,53,0.00,,OVC120,0.00,VWS V14.01,2013-01-26 20:07:00,
2013-01-26 14:12:00,16.2,2.9,30.25,SSE,155,14.0,18.0,55,0.00,,OVC120,0.00,VWS V14.01,2013-01-26 20:12:00,
2013-01-26 14:15:00,16.2,2.5,30.24,SSE,153,13.0,18.0,54,0.00,,,0.00,VWS V15.00,2013-01-26 20:15:00,
2013-01-26 14:17:00,16.2,2.5,30.24,SSE,153,13.0,18.0,54,0.00,,OVC120,0.00,VWS V14.01,2013-01-26 20:17:00,
2013-01-26 14:22:00,16.5,2.8,30.24,SE,144,4.0,14.0,54,0.00,,OVC120,0.00,VWS V14.01,2013-01-26 20:22:00,
2013-01-26 14:27:00,17.0,3.2,30.24,SE,141,9.0,14.0,54,0.00,,OVC120,0.00,VWS V14.01,2013-01-26 20:27:00,
2013-01-26 14:30:00,17.2,3.0,30.24,SSE,155,8.0,14.0,53,0.00,,,0.00,VWS V15.00,2013-01-26 20:30:00,
2013-01-26 14:32:00,17.2,3.0,30.24,SSE,156,10.0,10.0,53,0.00,,OVC120,0.00,VWS V14.01,2013-01-26 20:32:00,
2013-01-26 14:37:00,17.2,3.4,30.24,SE,143,11.0,15.0,54,0.00,,OVC120,0.00,VWS V14.01,2013-01-26 20:37:00,
2013-01-26 14:42:00,17.0,3.2,30.24,SE,142,11.0,15.0,54,0.00,,OVC120,0.00,VWS V14.01,2013-01-26 20:42:00,
2013-01-26 14:45:00,17.0,3.2,30.24,SSE,150,13.0,16.0,54,0.00,,,0.00,VWS V15.00,2013-01-26 20:45:00,
2013-01-26 14:47:00,17.0,3.2,30.24,SSE,152,12.0,13.0,54,0.00,,OVC120,0.00,VWS V14.01,2013-01-26 20:47:00,
2013-01-26 14:52:00,17.2,3.8,30.24,SSE,153,11.0,13.0,55,0.00,,OVC120,0.00,VWS V14.01,2013-01-26 20:52:00,
2013-01-26 14:57:00,17.0,3.2,30.24,SE,139,11.0,13.0,54,0.00,,OVC120,0.00,VWS V14.01,2013-01-26 20:57:00,
2013-01-26 15:00:00,17.0,3.6,30.23,SSE,151,9.0,15.0,55,0.00,,,0.00,VWS V15.00,2013-01-26 21:00:00,
2013-01-26 15:02:00,17.0,3.6,30.23,SSE,151,9.0,10.0,55,0.00,,OVC120,0.00,VWS V14.01,2013-01-26 21:02:00,
2013-01-26 15:07:00,17.2,3.8,30.23,SE,145,9.0,11.0,55,0.00,,OVC120,0.00,VWS V14.01,2013-01-26 21:07:00,
2013-01-26 15:12:00,17.2,3.8,30.23,SE,140,7.0,11.0,55,0.00,,OVC120,0.00,VWS V14.01,2013-01-26 21:12:00,
2013-01-26 15:15:00,17.2,4.6,30.24,SE,138,7.0,13.0,57,0.00,,,0.00,VWS V15.00,2013-01-26 21:15:00,
2013-01-26 15:17:00,17.2,3.8,30.24,SE,139,11.0,11.0,55,0.00,,OVC120,0.00,VWS V14.01,2013-01-26 21:17:00,
2013-01-26 15:22:00,17.0,3.6,30.24,SE,137,10.0,14.0,55,0.00,,OVC120,0.00,VWS V14.01,2013-01-26 21:22:00,
2013-01-26 15:27:00,17.0,4.0,30.24,SE,142,9.0,14.0,56,0.00,,OVC120,0.00,VWS V14.01,2013-01-26 21:27:00,
2013-01-26 15:30:00,17.0,3.6,30.24,SE,146,9.0,14.0,55,0.00,,,0.00,VWS V15.00,2013-01-26 21:30:00,
2013-01-26 15:32:00,17.0,3.6,30.24,SSE,151,8.0,12.0,55,0.00,,OVC120,0.00,VWS V14.01,2013-01-26 21:32:00,
2013-01-26 15:37:00,17.2,3.4,30.24,SSE,148,7.0,13.0,54,0.00,,OVC120,0.00,VWS V14.01,2013-01-26 21:37:00,
2013-01-26 15:42:00,17.3,3.9,30.24,SSE,149,6.0,13.0,55,0.00,,OVC120,0.00,VWS V14.01,2013-01-26 21:42:00,
2013-01-26 15:45:00,17.2,3.8,30.24,SSE,163,12.0,15.0,55,0.00,,,0.00,VWS V15.00,2013-01-26 21:45:00,
2013-01-26 15:47:00,17.2,3.8,30.24,SSE,164,16.0,16.0,55,0.00,,OVC120,0.00,VWS V14.01,2013-01-26 21:47:00,
2013-01-26 15:53:00,17.0,3.2,30.24,SSE,168,11.0,16.0,54,0.00,,OVC120,0.00,VWS V14.01,2013-01-26 21:53:00,
2013-01-26 15:58:00,17.0,3.6,30.24,SSE,148,9.0,16.0,55,0.00,,OVC120,0.00,VWS V14.01,2013-01-26 21:58:00,
2013-01-26 16:00:00,17.0,3.6,30.24,SSE,151,10.0,16.0,55,0.00,,,0.00,VWS V15.00,2013-01-26 22:00:00,
2013-01-26 16:03:00,17.0,3.6,30.24,SSE,152,10.0,13.0,55,0.00,,OVC110,0.00,VWS V14.01,2013-01-26 22:03:00,
2013-01-26 16:08:00,17.0,4.0,30.24,SSE,152,6.0,13.0,56,0.00,,OVC110,0.00,VWS V14.01,2013-01-26 22:08:00,
2013-01-26 16:13:00,17.2,3.8,30.24,SSE,149,9.0,13.0,55,0.00,,OVC110,0.00,VWS V14.01,2013-01-26 22:13:00,
2013-01-26 16:15:00,17.2,4.2,30.23,SE,130,5.0,13.0,56,0.00,,,0.00,VWS V15.00,2013-01-26 22:15:00,
2013-01-26 16:18:00,17.2,4.2,30.23,SE,134,7.0,10.0,56,0.00,,OVC110,0.00,VWS V14.01,2013-01-26 22:18:00,
2013-01-26 16:23:00,17.2,5.0,30.23,SE,136,6.0,12.0,58,0.00,,OVC110,0.00,VWS V14.01,2013-01-26 22:23:00,
2013-01-26 16:28:00,17.2,4.6,30.23,SE,144,11.0,12.0,57,0.00,,OVC110,0.00,VWS V14.01,2013-01-26 22:28:00,
2013-01-26 16:30:00,17.2,4.2,30.23,SE,132,8.0,13.0,56,0.00,,,0.00,VWS V15.00,2013-01-26 22:30:00,
2013-01-26 16:33:00,17.2,4.2,30.23,SE,131,10.0,13.0,56,0.00,,OVC110,0.00,VWS V14.01,2013-01-26 22:33:00,
2013-01-26 16:38:00,17.0,4.4,30.23,SE,143,6.0,13.0,57,0.00,,OVC110,0.00,VWS V14.01,2013-01-26 22:38:00,
2013-01-26 16:43:00,17.0,4.4,30.23,SE,133,13.0,18.0,57,0.00,,OVC080,0.00,VWS V14.01,2013-01-26 22:43:00,
2013-01-26 16:45:00,17.0,4.4,30.20,SE,133,7.0,18.0,57,0.00,,,0.00,VWS V15.00,2013-01-26 22:45:00,
2013-01-26 16:48:00,17.0,4.0,30.20,SE,139,11.0,18.0,56,0.00,,OVC080,0.00,VWS V14.01,2013-01-26 22:48:00,
2013-01-26 16:53:00,16.9,4.3,30.20,SE,142,7.0,18.0,57,0.00,,OVC080,0.00,VWS V14.01,2013-01-26 22:53:00,
2013-01-26 16:58:00,16.7,4.5,30.20,SE,143,3.0,18.0,58,0.00,,OVC080,0.00,VWS V14.01,2013-01-26 22:58:00,
2013-01-26 17:00:00,16.7,4.5,30.20,SE,127,13.0,18.0,58,0.00,,,0.00,VWS V15.00,2013-01-26 23:00:00,
2013-01-26 17:03:00,16.7,4.1,30.20,SE,136,7.0,13.0,57,0.00,,OVC080,0.00,VWS V14.01,2013-01-26 23:03:00,
2013-01-26 17:08:00,16.7,4.5,30.20,SE,137,13.0,16.0,58,0.00,,OVC080,0.00,VWS V14.01,2013-01-26 23:08:00,
2013-01-26 17:13:00,16.5,4.3,30.20,SE,144,10.0,19.0,58,0.00,,OVC080,0.00,VWS V14.01,2013-01-26 23:13:00,
2013-01-26 17:15:00,16.5,4.3,30.21,SE,135,5.0,19.0,58,0.00,,,0.00,VWS V15.00,2013-01-26 23:15:00,
2013-01-26 17:18:00,16.5,4.3,30.21,SE,143,11.0,11.0,58,0.00,,OVC080,0.00,VWS V14.01,2013-01-26 23:18:00,
2013-01-26 17:24:00,16.5,4.3,30.21,SE,143,15.0,19.0,58,0.00,,OVC080,0.00,VWS V14.01,2013-01-26 23:24:00,
2013-01-26 17:29:00,16.5,4.7,30.21,ESE,116,10.0,19.0,59,0.00,,OVC080,0.00,VWS V14.01,2013-01-26 23:29:00,
2013-01-26 17:30:00,16.5,4.3,30.20,SE,126,7.0,19.0,58,0.00,,,0.00,VWS V15.00,2013-01-26 23:30:00,
2013-01-26 17:34:00,16.5,4.7,30.20,SE,124,6.0,12.0,59,0.00,,OVC080,0.00,VWS V14.01,2013-01-26 23:34:00,
2013-01-26 17:39:00,16.5,4.7,30.20,ESE,121,9.0,15.0,59,0.00,,OVC080,0.00,VWS V14.01,2013-01-26 23:39:00,
2013-01-26 17:44:00,16.5,4.7,30.20,SE,136,15.0,16.0,59,0.00,,OVC110,0.00,VWS V14.01,2013-01-26 23:44:00,
2013-01-26 17:45:00,16.7,4.9,30.19,SE,135,10.0,16.0,59,0.00,,,0.00,VWS V15.00,2013-01-26 23:45:00,
2013-01-26 17:49:00,16.7,4.9,30.19,SE,144,13.0,13.0,59,0.00,,OVC110,0.00,VWS V14.01,2013-01-26 23:49:00,
2013-01-26 17:54:00,16.7,4.9,30.19,SE,144,5.0,16.0,59,0.00,,OVC110,0.00,VWS V14.01,2013-01-26 23:54:00,
2013-01-26 17:59:00,16.7,5.2,30.19,SE,144,9.0,16.0,60,0.00,,OVC110,0.00,VWS V14.01,2013-01-26 23:59:00,
2013-01-26 18:00:00,16.7,4.9,30.19,SSE,156,13.0,16.0,59,0.00,,,0.00,VWS V15.00,2013-01-27 00:00:00,
2013-01-26 18:04:00,16.7,5.2,30.19,SE,142,9.0,16.0,60,0.00,,OVC070,0.00,VWS V14.01,2013-01-27 00:04:00,
2013-01-26 18:09:00,16.9,5.4,30.19,SE,137,11.0,16.0,60,0.00,,OVC070,0.00,VWS V14.01,2013-01-27 00:09:00,
2013-01-26 18:14:00,16.9,5.4,30.19,SE,146,9.0,16.0,60,0.00,,OVC070,0.00,VWS V14.01,2013-01-27 00:14:00,
2013-01-26 18:15:00,17.0,5.5,30.18,SSE,163,14.0,16.0,60,0.00,,,0.00,VWS V15.00,2013-01-27 00:15:00,
2013-01-26 18:19:00,17.0,5.9,30.18,SE,145,13.0,14.0,61,0.00,,OVC070,0.00,VWS V14.01,2013-01-27 00:19:00,
2013-01-26 18:24:00,17.0,5.9,30.18,SSE,151,10.0,15.0,61,0.00,,OVC070,0.00,VWS V14.01,2013-01-27 00:24:00,
2013-01-26 18:29:00,17.2,6.1,30.18,SSE,148,13.0,17.0,61,0.00,,OVC070,0.00,VWS V14.01,2013-01-27 00:29:00,
2013-01-26 18:30:00,17.2,5.7,30.18,SE,139,12.0,17.0,60,0.00,,,0.00,VWS V15.00,2013-01-27 00:30:00,
2013-01-26 18:34:00,17.2,5.3,30.18,SSE,147,10.0,14.0,59,0.00,,OVC070,0.00,VWS V14.01,2013-01-27 00:34:00,
2013-01-26 18:39:00,17.2,5.7,30.18,SE,143,13.0,16.0,60,0.00,,OVC070,0.00,VWS V14.01,2013-01-27 00:39:00,
2013-01-26 18:44:00,17.3,5.8,30.18,SSE,153,12.0,16.0,60,0.00,,OVC070,0.00,VWS V14.01,2013-01-27 00:44:00,
2013-01-26 18:45:00,17.3,6.2,30.17,SSE,162,14.0,16.0,61,0.00,,,0.00,VWS V15.00,2013-01-27 00:45:00,
2013-01-26 18:49:00,17.3,5.8,30.17,SSE,163,12.0,18.0,60,0.00,,OVC070,0.00,VWS V14.01,2013-01-27 00:49:00,
2013-01-26 18:54:00,17.5,6.0,30.17,SSE,148,10.0,18.0,60,0.00,,OVC070,0.00,VWS V14.01,2013-01-27 00:54:00,
2013-01-26 18:59:00,17.5,6.4,30.17,SSE,152,14.0,18.0,61,0.00,,OVC070,0.00,VWS V14.01,2013-01-27 00:59:00,
2013-01-26 19:00:00,17.5,6.0,30.17,SSE,151,9.0,18.0,60,0.00,,,0.00,VWS V15.00,2013-01-27 01:00:00,
2013-01-26 19:04:00,17.7,6.2,30.17,SSE,161,10.0,12.0,60,0.00,,OVC070,0.00,VWS V14.01,2013-01-27 01:04:00,
2013-01-26 19:09:00,17.7,6.9,30.17,SSE,158,11.0,15.0,62,0.00,,OVC070,0.00,VWS V14.01,2013-01-27 01:09:00,
2013-01-26 19:14:00,17.7,6.6,30.17,SSE,164,11.0,16.0,61,0.00,,OVC070,0.00,VWS V14.01,2013-01-27 01:14:00,
2013-01-26 19:15:00,17.8,6.6,30.16,SSE,161,14.0,16.0,61,0.00,,,0.00,VWS V15.00,2013-01-27 01:15:00,
2013-01-26 19:19:00,17.8,7.0,30.16,SSE,165,16.0,19.0,62,0.00,,OVC070,0.00,VWS V14.01,2013-01-27 01:19:00,
2013-01-26 19:24:00,18.0,7.2,30.16,SSE,161,13.0,19.0,62,0.00,,OVC070,0.00,VWS V14.01,2013-01-27 01:24:00,
2013-01-26 19:29:00,18.1,6.9,30.16,SSE,163,11.0,19.0,61,0.00,,OVC070,0.00,VWS V14.01,2013-01-27 01:29:00,
2013-01-26 19:30:00,18.1,6.9,30.16,SSE,162,16.0,19.0,61,0.00,,,0.00,VWS V15.00,2013-01-27 01:30:00,
2013-01-26 19:34:00,18.3,7.1,30.16,SSE,166,13.0,18.0,61,0.00,,OVC070,0.00,VWS V14.01,2013-01-27 01:34:00,
2013-01-26 19:39:00,18.3,7.5,30.16,SSE,151,10.0,18.0,62,0.00,,OVC070,0.00,VWS V14.01,2013-01-27 01:39:00,
2013-01-26 19:44:00,18.4,7.2,30.16,SSE,168,9.0,18.0,61,0.00,,SCT110,0.00,VWS V14.01,2013-01-27 01:44:00,
2013-01-26 19:45:00,18.4,7.6,30.17,SSE,166,11.0,18.0,62,0.00,,,0.00,VWS V15.00,2013-01-27 01:45:00,
2013-01-26 19:50:00,18.6,7.4,30.17,SSE,168,13.0,15.0,61,0.00,,SCT110,0.00,VWS V14.01,2013-01-27 01:50:00,
2013-01-26 19:55:00,18.8,7.9,30.17,SSE,161,11.0,15.0,62,0.00,,SCT110,0.00,VWS V14.01,2013-01-27 01:55:00,
2013-01-26 20:00:00,18.9,7.7,30.17,South,174,15.0,20.0,61,0.00,,SCT110,0.00,VWS V14.01,2013-01-27 02:00:00,
2013-01-26 20:05:00,18.9,7.7,30.16,SSE,161,12.0,16.0,61,0.00,,BKN110,0.00,VWS V14.01,2013-01-27 02:05:00,
2013-01-26 20:10:00,19.1,8.2,30.16,SSE,153,17.0,19.0,62,0.00,,BKN110,0.00,VWS V14.01,2013-01-27 02:10:00,
2013-01-26 20:15:00,19.2,8.0,30.16,SSE,156,22.0,23.0,61,0.00,,BKN110,0.00,VWS V14.01,2013-01-27 02:15:00,
2013-01-26 20:20:00,19.2,8.0,30.13,SSE,150,17.0,23.0,61,0.00,,BKN110,0.00,VWS V14.01,2013-01-27 02:20:00,
2013-01-26 20:25:00,19.4,8.2,30.13,South,173,15.0,23.0,61,0.00,,BKN110,0.00,VWS V14.01,2013-01-27 02:25:00,
2013-01-26 20:30:00,19.4,8.2,30.13,SSE,163,14.0,23.0,61,0.00,,BKN110,0.00,VWS V14.01,2013-01-27 02:30:00,
2013-01-26 20:35:00,19.5,8.6,30.14,SSE,168,11.0,19.0,62,0.00,,BKN110,0.00,VWS V14.01,2013-01-27 02:35:00,
2013-01-26 20:40:00,19.5,8.6,30.14,SSE,163,11.0,19.0,62,0.00,,OVC100,0.00,VWS V14.01,2013-01-27 02:40:00,
2013-01-26 20:45:00,19.7,8.4,30.14,SSE,154,15.0,19.0,61,0.00,,OVC100,0.00,VWS V14.01,2013-01-27 02:45:00,
2013-01-26 20:50:00,19.7,8.4,30.16,South,169,7.0,12.0,61,0.00,,OVC100,0.00,VWS V14.01,2013-01-27 02:50:00,
2013-01-26 20:55:00,19.9,9.0,30.16,SSE,156,6.0,14.0,62,0.00,,OVC100,0.00,VWS V14.01,2013-01-27 02:55:00,
2013-01-26 21:00:00,19.9,9.0,30.16,SSE,163,12.0,14.0,62,0.00,,OVC100,0.00,VWS V14.01,2013-01-27 03:00:00,
2013-01-26 21:05:00,20.0,9.1,30.16,SSE,161,11.0,15.0,62,0.00,,OVC100,0.00,VWS V14.01,2013-01-27 03:05:00,
2013-01-26 21:10:00,20.0,9.1,30.16,SSE,159,14.0,17.0,62,0.00,,OVC100,0.00,VWS V14.01,2013-01-27 03:10:00,
2013-01-26 21:15:00,20.0,9.1,30.16,SSE,165,12.0,17.0,62,0.00,,OVC100,0.00,VWS V14.01,2013-01-27 03:15:00,
2013-01-26 21:20:00,20.2,9.3,30.14,SSE,168,13.0,16.0,62,0.00,,OVC100,0.00,VWS V14.01,2013-01-27 03:20:00,
2013-01-26 21:25:00,20.2,9.3,30.14,SSE,160,14.0,16.0,62,0.00,,OVC100,0.00,VWS V14.01,2013-01-27 03:25:00,
2013-01-26 21:30:00,20.3,9.4,30.15,SSE,161,14.0,16.0,62,0.00,,,0.00,VWS V15.00,2013-01-27 03:30:00,
2013-01-26 21:31:00,20.3,9.4,30.14,SSE,153,7.0,16.0,62,0.00,,OVC100,0.00,VWS V14.01,2013-01-27 03:31:00,
2013-01-26 21:36:00,20.3,9.4,30.15,SSE,161,7.0,14.0,62,0.00,,OVC100,0.00,VWS V14.01,2013-01-27 03:36:00,
2013-01-26 21:41:00,20.5,9.6,30.15,SSE,160,12.0,14.0,62,0.00,,BKN110,0.00,VWS V14.01,2013-01-27 03:41:00,
2013-01-26 21:45:00,20.5,9.6,30.14,SSE,168,12.0,16.0,62,0.00,,,0.00,VWS V15.00,2013-01-27 03:45:00,
2013-01-26 21:46:00,20.5,9.6,30.15,SSE,167,13.0,16.0,62,0.00,,BKN110,0.00,VWS V14.01,2013-01-27 03:46:00,
2013-01-26 21:51:00,20.5,9.6,30.14,SSE,161,11.0,17.0,62,0.00,,BKN110,0.00,VWS V14.01,2013-01-27 03:51:00,
2013-01-26 21:56:00,20.5,9.6,30.14,SSE,150,10.0,17.0,62,0.00,,BKN110,0.00,VWS V14.01,2013-01-27 03:56:00,
2013-01-26 22:00:00,20.5,9.6,30.14,SSE,153,6.0,17.0,62,0.00,,,0.00,VWS V15.00,2013-01-27 04:00:00,
2013-01-26 22:01:00,20.5,9.6,30.14,SSE,153,10.0,17.0,62,0.00,,BKN110,0.00,VWS V14.01,2013-01-27 04:01:00,
2013-01-26 22:06:00,20.5,9.9,30.14,SSE,153,9.0,12.0,63,0.00,,BKN110,0.00,VWS V14.01,2013-01-27 04:06:00,
2013-01-26 22:11:00,20.6,9.7,30.14,SSE,154,10.0,12.0,62,0.00,,BKN110,0.00,VWS V14.01,2013-01-27 04:11:00,
2013-01-26 22:15:00,20.5,9.9,30.13,SSE,151,10.0,13.0,63,0.00,,,0.00,VWS V15.00,2013-01-27 04:15:00,
2013-01-26 22:16:00,20.5,9.9,30.13,SSE,157,10.0,13.0,63,0.00,,BKN110,0.00,VWS V14.01,2013-01-27 04:16:00,
2013-01-26 22:21:00,20.6,9.7,30.13,SSE,149,11.0,15.0,62,0.00,,BKN110,0.00,VWS V14.01,2013-01-27 04:21:00,
2013-01-26 22:26:00,20.6,9.7,30.13,SSE,156,11.0,15.0,62,0.00,,BKN110,0.00,VWS V14.01,2013-01-27 04:26:00,
2013-01-26 22:30:00,20.6,9.7,30.13,SSE,149,10.0,15.0,62,0.00,,,0.00,VWS V15.00,2013-01-27 04:30:00,
2013-01-26 22:31:00,20.6,9.7,30.13,SSE,151,11.0,15.0,62,0.00,,BKN110,0.00,VWS V14.01,2013-01-27 04:31:00,
2013-01-26 22:36:00,20.8,10.2,30.13,SSE,151,11.0,14.0,63,0.00,,BKN110,0.00,VWS V14.01,2013-01-27 04:36:00,
2013-01-26 22:41:00,20.6,10.0,30.13,SSE,151,11.0,15.0,63,0.00,,OVC110,0.00,VWS V14.01,2013-01-27 04:41:00,
2013-01-26 22:45:00,20.8,9.9,30.13,SSE,154,13.0,15.0,62,0.00,,,0.00,VWS V15.00,2013-01-27 04:45:00,
2013-01-26 22:46:00,20.8,9.9,30.13,SSE,153,9.0,15.0,62,0.00,,OVC110,0.00,VWS V14.01,2013-01-27 04:46:00,
2013-01-26 22:51:00,20.8,9.9,30.13,SSE,154,10.0,13.0,62,0.00,,OVC110,0.00,VWS V14.01,2013-01-27 04:51:00,
2013-01-26 22:56:00,20.8,9.9,30.13,SE,146,12.0,16.0,62,0.00,,OVC110,0.00,VWS V14.01,2013-01-27 04:56:00,
2013-01-26 23:00:00,21.0,10.0,30.13,SSE,156,10.0,16.0,62,0.00,,BKN110,0.00,VWS V14.01,2013-01-27 05:00:00,
2013-01-26 23:01:00,21.0,10.0,30.13,SSE,153,11.0,16.0,62,0.00,,BKN110,0.00,VWS V14.01,2013-01-27 05:01:00,
2013-01-26 23:02:00,20.8,10.2,30.13,SE,144,11.0,16.0,63,0.00,,BKN110,0.00,VWS V14.01,2013-01-27 05:02:00,
2013-01-26 23:07:00,20.8,10.2,30.13,SSE,149,7.0,13.0,63,0.00,,BKN110,0.00,VWS V14.01,2013-01-27 05:07:00,
2013-01-26 23:12:00,21.0,10.0,30.13,SE,144,11.0,16.0,62,0.00,,BKN110,0.00,VWS V14.01,2013-01-27 05:12:00,
2013-01-26 23:15:00,21.0,10.0,30.13,SSE,152,10.0,16.0,62,0.00,,,0.00,VWS V15.00,2013-01-27 05:15:00,
2013-01-26 23:18:00,21.0,10.0,30.13,SSE,156,7.0,11.0,62,0.00,,BKN110,0.00,VWS V14.01,2013-01-27 05:18:00,
2013-01-26 23:23:00,21.0,10.4,30.13,SSE,151,10.0,14.0,63,0.00,,BKN110,0.00,VWS V14.01,2013-01-27 05:23:00,
2013-01-26 23:28:00,21.0,10.0,30.13,SE,144,12.0,14.0,62,0.00,,BKN110,0.00,VWS V14.01,2013-01-27 05:28:00,
2013-01-26 23:30:00,21.1,10.1,30.13,SE,142,8.0,14.0,62,0.00,,,0.00,VWS V15.00,2013-01-27 05:30:00,
2013-01-26 23:33:00,21.1,10.1,30.13,SSE,147,10.0,11.0,62,0.00,,BKN110,0.00,VWS V14.01,2013-01-27 05:33:00,
2013-01-26 23:38:00,21.1,10.1,30.13,SE,142,9.0,13.0,62,0.00,,BKN110,0.00,VWS V14.01,2013-01-27 05:38:00,
2013-01-26 23:43:00,21.1,10.1,30.13,SSE,161,13.0,15.0,62,0.00,,CLR,0.00,VWS V14.01,2013-01-27 05:43:00,
2013-01-26 23:45:00,21.1,10.1,30.13,SSE,153,11.0,15.0,62,0.00,,,0.00,VWS V15.00,2013-01-27 05:45:00,
2013-01-26 23:48:00,21.1,10.5,30.13,SE,144,9.0,13.0,63,0.00,,CLR,0.00,VWS V14.01,2013-01-27 05:48:00,
2013-01-26 23:53:00,21.1,10.5,30.13,SSE,152,12.0,14.0,63,0.00,,CLR,0.00,VWS V14.01,2013-01-27 05:53:00,
2013-01-26 23:58:00,21.0,10.4,30.13,SSE,153,15.0,15.0,63,0.00,,CLR,0.00,VWS V14.01,2013-01-27 05:58:00,